Weather History for Winter Haven, FL

Change the Weather History Date:

Monday, October 15, 2012

  Actual Average Record
Temperature  
Mean Temperature 80 °F -  
Max Temperature 89 °F 85 °F 91 °F (1952)
Min Temperature 71 °F 65 °F 46 °F (1977)
Cooling Degree Days 14    
Growing Degree Days 30 (Base 50)    
Moisture  
Dew Point 70 °F    
Average Humidity 81    
Maximum Humidity 100    
Minimum Humidity 48    
Precipitation  
Precipitation 0.26 in - - ()
Sea Level Pressure  
Sea Level Pressure 29.91 in    
Wind  
Wind Speed 4 mph (NNE)    
Max Wind Speed 10 mph    
Max Gust Speed -    
Visibility 8 miles    
Events Rain    
Averages and records for this station are not official NWS values.
T = Trace of Precipitation, MM = Missing Value Source: NWS Daily Summary

Daily Weather History Graph

Daily Weather History Graph

Search for Another Location

Airport:

Trip Planner

Search our weather history database for the weather conditions in past years. The results will help you decide how hot, cold, wet, or windy it might be!

Date:

Astronomy

Oct. 15, 2012 Rise Set
Actual Time 7:27 AM EDT 6:57 PM EDT
Civil Twilight 7:04 AM EDT 7:20 PM EDT
Nautical Twilight 6:36 AM EDT 7:48 PM EDT
Astronomical Twilight 6:09 AM EDT 8:15 PM EDT
Moon 7:31 AM EDT (10/15) 7:02 PM EDT (10/15)
Length of Visible Light 12h 16m
Length of Day
11h 29m
New Moon, 0% of the Moon is Illuminated
Oct 15
New Moon
Oct 21
First Quarter
Oct 29
Full
Nov 6
Last Quarter
Nov 13
New

Hourly Weather History & Observations

Time (EDT) Temp. Heat Index Dew Point Humidity Pressure Visibility Wind Dir Wind Speed Gust Speed Precip Events Conditions
12:53 AM 73.0 °F - 70.0 °F 90% 29.99 in 10.0 mi NNE 5.8 mph - N/A   Clear
1:53 AM 73.0 °F - 70.0 °F 90% 29.98 in 9.0 mi Calm Calm - N/A   Mostly Cloudy
2:53 AM 72.0 °F - 70.0 °F 93% 29.97 in 9.0 mi NE 3.5 mph - N/A   Partly Cloudy
3:53 AM 72.0 °F - 70.0 °F 93% 29.94 in 8.0 mi Calm Calm - N/A   Scattered Clouds
4:16 AM 73.0 °F - 71.1 °F 93% 29.94 in 8.0 mi ESE 3.5 mph - N/A   Mostly Cloudy
4:48 AM 71.6 °F - 71.6 °F 100% 29.94 in 8.0 mi Calm Calm - N/A   Mostly Cloudy
4:53 AM 73.0 °F - 71.1 °F 93% 29.94 in 8.0 mi Calm Calm - N/A   Mostly Cloudy
5:53 AM 73.0 °F - 71.1 °F 93% 29.94 in 7.0 mi NNW 4.6 mph - N/A   Overcast
6:02 AM 73.0 °F - 71.1 °F 93% 29.94 in 7.0 mi North 4.6 mph - N/A   Overcast
6:10 AM 73.0 °F - 71.1 °F 93% 29.94 in 7.0 mi North 4.6 mph - N/A   Overcast
6:53 AM 73.0 °F - 71.1 °F 93% 29.94 in 7.0 mi Calm Calm - N/A   Overcast
7:53 AM 73.0 °F - 71.1 °F 93% 29.94 in 5.0 mi North 5.8 mph - N/A   Mostly Cloudy
8:00 AM 72.0 °F - 71.1 °F 97% 29.95 in 5.0 mi North 6.9 mph - N/A   Mostly Cloudy
8:07 AM 73.0 °F - 71.1 °F 93% 29.95 in 6.0 mi North 6.9 mph - N/A   Overcast
8:53 AM 73.9 °F - 71.1 °F 91% 29.96 in 8.0 mi North 10.4 mph - N/A   Overcast
9:53 AM 75.9 °F - 72.0 °F 87% 29.97 in 10.0 mi North 8.1 mph - N/A   Overcast
10:53 AM 79.0 °F - 73.0 °F 82% 29.97 in 10.0 mi North 5.8 mph - N/A   Overcast
11:53 AM 82.9 °F 88.8 °F 73.0 °F 72% 29.97 in 10.0 mi North 8.1 mph - N/A   Overcast
12:53 PM 84.9 °F 89.4 °F 70.0 °F 61% 29.93 in 10.0 mi North 5.8 mph - N/A   Overcast
1:15 PM 86.0 °F 91.5 °F 71.1 °F 61% 29.92 in 10.0 mi Variable 3.5 mph - N/A   Overcast
1:23 PM 84.9 °F 89.4 °F 70.0 °F 61% 29.92 in 10.0 mi North 4.6 mph - N/A   Mostly Cloudy
1:53 PM 84.9 °F 89.4 °F 70.0 °F 61% 29.91 in 10.0 mi Variable 3.5 mph - N/A   Scattered Clouds
2:53 PM 88.0 °F 91.4 °F 68.0 °F 51% 29.87 in 10.0 mi Variable 4.6 mph - N/A   Partly Cloudy
3:53 PM 88.0 °F 90.3 °F 66.0 °F 48% 29.85 in 10.0 mi ENE 4.6 mph - N/A   Partly Cloudy
4:53 PM 87.1 °F 88.9 °F 64.9 °F 48% 29.84 in 10.0 mi NNE 3.5 mph - N/A   Clear
5:53 PM 84.9 °F 86.6 °F 64.9 °F 51% 29.83 in 10.0 mi ENE 8.1 mph - N/A   Mostly Cloudy
6:25 PM 80.1 °F 83.8 °F 72.0 °F 76% 29.85 in 2.0 mi ESE 8.1 mph - 0.10 in Rain Heavy Rain
6:27 PM 79.0 °F - 72.0 °F 79% 29.85 in 1.5 mi East 10.4 mph - 0.17 in Rain Heavy Rain
6:39 PM 77.0 °F - 72.0 °F 84% 29.85 in 2.5 mi ENE 8.1 mph - 0.26 in Rain Light Rain
6:53 PM 77.0 °F - 71.1 °F 82% 29.85 in 10.0 mi ENE 4.6 mph - 0.26 in   Overcast
7:53 PM 75.9 °F - 71.1 °F 85% 29.85 in 10.0 mi Calm Calm - N/A   Clear
8:53 PM 75.9 °F - 71.1 °F 85% 29.86 in 10.0 mi Calm Calm - N/A   Mostly Cloudy
9:53 PM 73.9 °F - 71.1 °F 91% 29.88 in 10.0 mi NW 5.8 mph - N/A   Clear
10:53 PM 73.9 °F - 71.1 °F 91% 29.88 in 10.0 mi NNW 3.5 mph - N/A   Clear
11:53 PM 73.0 °F - 69.1 °F 87% 29.88 in 10.0 mi NNW 3.5 mph - N/A   Clear